Time,TemperatureF,DewpointF,PressureIn,WindDirection,WindDirectionDegrees,WindSpeedMPH,WindSpeedGustMPH,Humidity,HourlyPrecipIn,Conditions,Clouds,dailyrainin,SolarRadiationWatts/m^2,SoftwareType,DateUTC
2013-05-17 00:12:00,61.0,56.0,-100.00,NNE,15,4.0,7.0,84,0.00,,,0.00,0.000000,,2013-05-17 10:12:00,
2013-05-17 00:23:00,61.0,56.0,-100.00,NNE,15,4.0,7.0,84,0.00,,,0.00,0.000000,,2013-05-17 10:23:00,
2013-05-17 00:32:00,61.0,56.0,-100.00,NNE,15,4.0,7.0,84,0.00,,,0.00,0.000000,,2013-05-17 10:32:00,
2013-05-17 00:42:00,61.0,56.0,-100.00,NNE,15,4.0,7.0,84,0.00,,,0.00,0.000000,,2013-05-17 10:42:00,
2013-05-17 01:12:00,59.0,54.0,-100.00,North,355,4.0,8.0,85,0.00,,,0.00,0.000000,,2013-05-17 11:12:00,
2013-05-17 01:22:00,59.0,54.0,-100.00,North,355,4.0,8.0,85,0.00,,,0.00,0.000000,,2013-05-17 11:22:00,
2013-05-17 01:34:00,59.0,54.0,-100.00,North,355,4.0,8.0,85,0.00,,,0.00,0.000000,,2013-05-17 11:34:00,
2013-05-17 01:42:00,59.0,54.0,-100.00,North,355,4.0,8.0,85,0.00,,,0.00,0.000000,,2013-05-17 11:42:00,
2013-05-17 02:12:00,62.0,55.0,-100.00,NNW,340,6.0,10.0,79,0.00,,,0.00,0.000000,,2013-05-17 12:12:00,
2013-05-17 02:23:00,62.0,55.0,-100.00,NNW,340,6.0,10.0,79,0.00,,,0.00,0.000000,,2013-05-17 12:23:00,
2013-05-17 02:32:00,62.0,55.0,-100.00,NNW,340,6.0,10.0,79,0.00,,,0.00,0.000000,,2013-05-17 12:32:00,
2013-05-17 02:42:00,62.0,55.0,-100.00,NNW,340,6.0,10.0,79,0.00,,,0.00,0.000000,,2013-05-17 12:42:00,
2013-05-17 03:12:00,66.0,57.0,-100.00,North,351,9.0,14.0,74,0.00,,,-99.99,0.000000,,2013-05-17 13:12:00,
2013-05-17 03:23:00,66.0,57.0,-100.00,North,351,9.0,14.0,74,0.00,,,-99.99,0.000000,,2013-05-17 13:23:00,
2013-05-17 03:33:00,66.0,57.0,-100.00,North,351,9.0,14.0,74,0.00,,,-99.99,0.000000,,2013-05-17 13:33:00,
2013-05-17 03:42:00,66.0,57.0,-100.00,North,351,9.0,14.0,74,0.00,,,-99.99,0.000000,,2013-05-17 13:42:00,
2013-05-17 04:13:00,65.0,57.0,-100.00,NNE,18,3.0,13.0,76,0.00,,,0.00,0.000000,,2013-05-17 14:13:00,
2013-05-17 04:22:00,65.0,57.0,-100.00,NNE,18,3.0,13.0,76,0.00,,,0.00,0.000000,,2013-05-17 14:22:00,
2013-05-17 04:34:00,65.0,57.0,-100.00,NNE,18,3.0,13.0,76,0.00,,,0.00,0.000000,,2013-05-17 14:34:00,
2013-05-17 04:42:00,65.0,57.0,-100.00,NNE,18,3.0,13.0,76,0.00,,,0.00,0.000000,,2013-05-17 14:42:00,
2013-05-17 05:14:00,66.0,58.0,-100.00,North,9,5.0,9.0,76,0.00,,,0.00,0.000000,,2013-05-17 15:14:00,
2013-05-17 05:25:00,66.0,58.0,-100.00,North,9,5.0,9.0,76,0.00,,,0.00,0.000000,,2013-05-17 15:25:00,
2013-05-17 05:37:00,66.0,58.0,-100.00,North,9,5.0,9.0,76,0.00,,,0.00,0.000000,,2013-05-17 15:37:00,
2013-05-17 05:47:00,66.0,58.0,-100.00,North,9,5.0,9.0,76,0.00,,,0.00,0.000000,,2013-05-17 15:47:00,
2013-05-17 05:48:00,63.0,57.0,-100.00,NNE,30,3.0,8.0,80,0.00,,,0.00,0.000000,,2013-05-17 15:48:00,
2013-05-17 06:13:00,63.0,57.0,-100.00,NNE,30,3.0,8.0,80,0.00,,,0.00,0.000000,,2013-05-17 16:13:00,
2013-05-17 06:26:00,63.0,57.0,-100.00,NNE,30,3.0,8.0,80,0.00,,,0.00,0.000000,,2013-05-17 16:26:00,
2013-05-17 06:37:00,63.0,57.0,-100.00,NNE,30,3.0,8.0,80,0.00,,,0.00,0.000000,,2013-05-17 16:37:00,
2013-05-17 06:48:00,63.0,58.0,-100.00,NNW,330,4.0,7.0,85,0.00,,,0.00,31.000000,,2013-05-17 16:48:00,
2013-05-17 07:18:00,63.0,58.0,-100.00,NNW,330,4.0,7.0,85,0.00,,,0.00,31.000000,,2013-05-17 17:18:00,
2013-05-17 07:29:00,63.0,58.0,-100.00,NNW,330,4.0,7.0,85,0.00,,,0.00,31.000000,,2013-05-17 17:29:00,
2013-05-17 07:40:00,63.0,-99.9,-100.00,NNW,330,4.0,7.0,85,0.00,,,0.00,31.000000,,2013-05-17 17:40:00,
2013-05-17 07:48:00,-999.0,-99.9,-100.00,WNW,297,3.0,8.0,68,0.00,,,0.00,170.000000,,2013-05-17 17:48:00,
2013-05-17 08:20:00,71.0,60.0,-100.00,WNW,297,3.0,8.0,68,0.00,,,0.00,170.000000,,2013-05-17 18:20:00,
2013-05-17 08:30:00,71.0,60.0,-100.00,WNW,297,3.0,8.0,68,0.00,,,0.00,170.000000,,2013-05-17 18:30:00,
2013-05-17 08:40:00,71.0,-99.9,-100.00,WNW,297,3.0,8.0,68,0.00,,,0.00,170.000000,,2013-05-17 18:40:00,
2013-05-17 08:48:00,76.0,57.0,-100.00,East,92,8.0,15.0,51,0.00,,,0.00,517.000000,,2013-05-17 18:48:00,
2013-05-17 09:20:00,76.0,57.0,-100.00,East,92,8.0,15.0,51,0.00,,,0.00,517.000000,,2013-05-17 19:20:00,
2013-05-17 09:30:00,76.0,57.0,-100.00,East,92,8.0,15.0,51,0.00,,,0.00,517.000000,,2013-05-17 19:30:00,
2013-05-17 09:40:00,76.0,57.0,-100.00,East,92,8.0,15.0,51,0.00,,,0.00,517.000000,,2013-05-17 19:40:00,
2013-05-17 09:48:00,76.0,57.0,-100.00,ESE,117,10.0,18.0,51,0.00,,,0.00,643.000000,,2013-05-17 19:48:00,
2013-05-17 10:20:00,76.0,57.0,-100.00,ESE,117,10.0,18.0,51,0.00,,,0.00,643.000000,,2013-05-17 20:20:00,
2013-05-17 10:30:00,76.0,57.0,-100.00,ESE,117,10.0,18.0,51,0.00,,,0.00,643.000000,,2013-05-17 20:30:00,
2013-05-17 10:40:00,76.0,57.0,-100.00,ESE,117,10.0,18.0,51,0.00,,,0.00,643.000000,,2013-05-17 20:40:00,
2013-05-17 10:48:00,74.0,65.0,-100.00,ESE,118,10.0,20.0,73,0.00,,,0.00,556.000000,,2013-05-17 20:48:00,
2013-05-17 11:16:00,74.0,65.0,-100.00,ESE,118,10.0,20.0,73,0.00,,,0.00,556.000000,,2013-05-17 21:16:00,
2013-05-17 11:26:00,74.0,65.0,-100.00,ESE,118,10.0,20.0,73,0.00,,,0.00,556.000000,,2013-05-17 21:26:00,
2013-05-17 11:39:00,74.0,65.0,-100.00,ESE,118,10.0,20.0,73,0.00,,,0.00,556.000000,,2013-05-17 21:39:00,
2013-05-17 12:17:00,74.0,63.0,-100.00,ESE,105,9.0,17.0,68,0.00,,,0.00,589.000000,,2013-05-17 22:17:00,
2013-05-17 12:28:00,74.0,63.0,-100.00,ESE,105,9.0,17.0,68,0.00,,,0.00,589.000000,,2013-05-17 22:28:00,
2013-05-17 12:38:00,74.0,63.0,-100.00,ESE,105,9.0,17.0,68,0.00,,,0.00,589.000000,,2013-05-17 22:38:00,
2013-05-17 12:47:00,74.0,63.0,-100.00,ESE,105,9.0,17.0,68,0.00,,,0.00,589.000000,,2013-05-17 22:47:00,
2013-05-17 13:13:00,74.0,64.0,-100.00,ESE,103,10.0,21.0,70,0.00,,,0.00,681.000000,,2013-05-17 23:13:00,
2013-05-17 13:23:00,74.0,64.0,-100.00,ESE,103,10.0,21.0,70,0.00,,,0.00,681.000000,,2013-05-17 23:23:00,
2013-05-17 13:37:00,74.0,64.0,-100.00,ESE,103,10.0,21.0,70,0.00,,,0.00,681.000000,,2013-05-17 23:37:00,
2013-05-17 13:47:00,74.0,64.0,-100.00,ESE,103,10.0,21.0,70,0.00,,,0.00,681.000000,,2013-05-17 23:47:00,
2013-05-17 14:14:00,71.0,62.0,-100.00,ESE,104,9.0,21.0,74,0.00,,,0.00,249.000000,,2013-05-18 00:14:00,
2013-05-17 14:21:00,71.0,62.0,-100.00,ESE,104,9.0,21.0,74,0.00,,,0.00,249.000000,,2013-05-18 00:21:00,
2013-05-17 14:33:00,71.0,62.0,-100.00,ESE,104,9.0,21.0,74,0.00,,,0.00,249.000000,,2013-05-18 00:33:00,
2013-05-17 14:44:00,71.0,62.0,-100.00,ESE,104,9.0,21.0,74,0.00,,,0.00,249.000000,,2013-05-18 00:44:00,
2013-05-17 15:13:00,69.0,63.0,-100.00,ESE,112,8.0,15.0,81,0.00,,,0.00,99.000000,,2013-05-18 01:13:00,
2013-05-17 15:24:00,69.0,63.0,-100.00,ESE,112,8.0,15.0,81,0.00,,,0.00,99.000000,,2013-05-18 01:24:00,
2013-05-17 15:31:00,69.0,63.0,-100.00,ESE,112,8.0,15.0,81,0.00,,,0.00,99.000000,,2013-05-18 01:31:00,
2013-05-17 15:42:00,69.0,63.0,-100.00,ESE,112,8.0,15.0,81,0.00,,,0.00,99.000000,,2013-05-18 01:42:00,
2013-05-17 16:12:00,68.0,64.0,-100.00,East,88,6.0,15.0,86,0.01,,,0.01,83.000000,,2013-05-18 02:12:00,
2013-05-17 16:22:00,68.0,64.0,-100.00,East,88,6.0,15.0,86,0.01,,,0.01,83.000000,,2013-05-18 02:22:00,
2013-05-17 16:31:00,68.0,64.0,-100.00,East,88,6.0,15.0,86,0.01,,,0.01,83.000000,,2013-05-18 02:31:00,
2013-05-17 16:42:00,68.0,64.0,-100.00,East,88,6.0,15.0,86,0.01,,,0.01,83.000000,,2013-05-18 02:42:00,
2013-05-17 17:12:00,67.0,65.0,-100.00,SE,130,2.0,9.0,94,0.00,,,0.01,68.000000,,2013-05-18 03:12:00,
2013-05-17 17:22:00,67.0,65.0,-100.00,SE,130,2.0,9.0,94,0.00,,,0.01,68.000000,,2013-05-18 03:22:00,
2013-05-17 17:32:00,67.0,65.0,-100.00,SE,130,2.0,9.0,94,0.00,,,0.01,68.000000,,2013-05-18 03:32:00,
2013-05-17 17:43:00,67.0,65.0,-100.00,SE,130,2.0,9.0,94,0.00,,,0.01,68.000000,,2013-05-18 03:43:00,
2013-05-17 18:12:00,67.0,62.0,-100.00,ENE,74,5.0,11.0,85,0.00,,,0.01,39.000000,,2013-05-18 04:12:00,
2013-05-17 18:23:00,67.0,62.0,-100.00,ENE,74,5.0,11.0,85,0.00,,,0.01,39.000000,,2013-05-18 04:23:00,
2013-05-17 18:32:00,67.0,62.0,-100.00,ENE,74,5.0,11.0,85,0.00,,,0.01,39.000000,,2013-05-18 04:32:00,
2013-05-17 18:42:00,67.0,62.0,-100.00,ENE,74,5.0,11.0,85,0.00,,,0.01,39.000000,,2013-05-18 04:42:00,
2013-05-17 20:11:00,65.0,62.0,-100.00,NNW,339,6.0,12.0,90,-99.99,,,0.01,0.000000,,2013-05-18 06:11:00,
2013-05-17 20:22:00,65.0,62.0,-100.00,NNW,339,6.0,12.0,90,-99.99,,,0.01,0.000000,,2013-05-18 06:22:00,
2013-05-17 20:31:00,65.0,62.0,-100.00,NNW,339,6.0,12.0,90,-99.99,,,0.01,0.000000,,2013-05-18 06:31:00,
2013-05-17 20:42:00,65.0,62.0,-100.00,NNW,339,6.0,12.0,90,-99.99,,,0.01,0.000000,,2013-05-18 06:42:00,
2013-05-17 21:11:00,65.0,60.0,-100.00,NNW,344,7.0,12.0,85,0.00,,,0.01,0.000000,,2013-05-18 07:11:00,
2013-05-17 21:21:00,65.0,60.0,-100.00,NNW,344,7.0,12.0,85,0.00,,,0.01,0.000000,,2013-05-18 07:21:00,
2013-05-17 21:31:00,65.0,60.0,-100.00,NNW,344,7.0,12.0,85,0.00,,,0.01,0.000000,,2013-05-18 07:31:00,
2013-05-17 21:42:00,65.0,60.0,-100.00,NNW,344,7.0,12.0,85,0.00,,,0.01,0.000000,,2013-05-18 07:42:00,
2013-05-17 22:11:00,65.0,61.0,-100.00,NE,46,4.0,6.0,88,0.00,,,0.01,0.000000,,2013-05-18 08:11:00,
2013-05-17 22:21:00,65.0,61.0,-100.00,NE,46,4.0,6.0,88,0.00,,,0.01,0.000000,,2013-05-18 08:21:00,
2013-05-17 22:32:00,65.0,61.0,-100.00,NE,46,4.0,6.0,88,0.00,,,0.01,0.000000,,2013-05-18 08:32:00,
2013-05-17 22:42:00,65.0,61.0,-100.00,NE,46,4.0,6.0,88,0.00,,,0.01,0.000000,,2013-05-18 08:42:00,
2013-05-17 23:11:00,64.0,61.0,-100.00,North,11,3.0,7.0,90,0.00,,,0.01,0.000000,,2013-05-18 09:11:00,
2013-05-17 23:22:00,64.0,61.0,-100.00,North,11,3.0,7.0,90,0.00,,,0.01,0.000000,,2013-05-18 09:22:00,
2013-05-17 23:32:00,64.0,61.0,-100.00,North,11,3.0,7.0,90,0.00,,,0.01,0.000000,,2013-05-18 09:32:00,
2013-05-17 23:43:00,64.0,61.0,-100.00,North,11,3.0,7.0,90,0.00,,,0.01,0.000000,,2013-05-18 09:43:00,